Hourly Weather Roundup
Issued by NWS Central Illinois

Home | Current Version | Previous Version | Text Only | Print | Product List | Glossary On
Versions: 1 2 3 4 5 6 7 8 9 10 11 12 13 14 15 16 17 18 19 20 21 22 23 24 25 26 27 28 29 30 31 32 33 34 35 36 37 38 39 40 41 42 43 44 45 46 47 48 49 50
539
NZUS43 KILX 261110
HWRILX

AREA WEATHER ROUNDUP
NATIONAL WEATHER SERVICE, LINCOLN IL
600 AM CDT TUE JUL 26 2016


CITY           SKY/WX    TMP DP  RH WIND       PRES   REMARKS
BLOOMINGTON    CLEAR     70  66  87 CALM      30.06S
CHAMPAIGN      CLOUDY    73  69  87 NE7       30.04F
DANVILLE       MOCLDY    70  68  93 NE3       30.02S
DECATUR        CLOUDY    72  69  90 NE5       30.04S
EFFINGHAM      TSTM      72  72 100 NE6       30.04R
FLORA          FOG       75  74  98 CALM      30.02R VSB 1/4
GALESBURG      PTCLDY    63  63  99 CALM      30.06S
JACKSONVILLE   PTCLDY    71  69  93 N5        30.04F
LACON          CLEAR     65  64  96 CALM      30.05R
LAWRENCEVILLE  CLOUDY    76  76 100 CALM      30.02R FOG
LITCHFIELD     NOT AVBL
$$


CITY           SKY/WX    TMP DP  RH WIND       PRES   REMARKS
LINCOLN        PTCLDY    69  68  98 CALM      30.05R
MACOMB         CLEAR     62  62  97 CALM      30.08R
MATTOON        LGT RAIN  74  71  91 NE3       30.02S
MT CARMEL AP   FOG       74  73  97 CALM      30.01R VSB 1
OLNEY-NOBLE AP FOG       73  73 100 CALM      30.02R VSB 3/4
PARIS          CLOUDY    72  70  92 CALM      30.04S
PEORIA         CLEAR     69  67  93 CALM      30.05S
PONTIAC        NOT AVBL
RANTOUL        NOT AVBL
ROBINSON       CLOUDY    73  73  99 CALM      30.02S
SPRINGFIELD    PTCLDY    72  70  93 N5        30.04S
TAYLORVILLE    CLOUDY    72  71  97 MISG      30.03S
$$

...REGIONAL REPORTS...


CITY           SKY/WX    TMP DP  RH WIND       PRES   REMARKS
CHICAGO O`HARE PTCLDY    71  65  81 N5        30.06R
KANKAKEE       FOG       67  66  96 CALM      30.06S VSB 1/4
MOLINE         PTCLDY    65  62  90 CALM      30.06R
MOUNT STERLING CLEAR     65  64  98 N5        30.05S
MOUNT VERNON   CLOUDY    73  70  88 CALM      30.01R VSB 1/4
PITTSFIELD     PTCLDY    69  67  96 CALM      30.06S
QUINCY         CLEAR     66  65  96 NE5       30.05R
ROCKFORD       PTCLDY    67  65  93 CALM      30.08R
$$


CITY           SKY/WX    TMP DP  RH WIND       PRES   REMARKS
BURLINGTON     CLEAR     65  65 100 N5        30.06R
CEDAR RAPIDS   CLEAR     62  62 100 NW3       30.07S
DES MOINES     PTCLDY    69  66  90 CALM      30.08R
KIRKSVILLE     CLEAR     64  63  96 N5        30.08S
OTTUMWA        CLEAR     63  61  93 N3        30.07S
ST LOUIS       CLOUDY    77  72  84 N5        30.03R
$$


CITY           SKY/WX    TMP DP  RH WIND       PRES   REMARKS
TERRE HAUTE    CLOUDY    73  69  87 NE5       30.02R
EVANSVILLE     PTCLDY    73  71  93 CALM      30.01S
INDIANAPOLIS   CLOUDY    74  64  71 NE8       30.05R
LAFAYETTE      CLOUDY    71  65  81 NE6       30.05R
MADISON        PTCLDY    64  62  93 CALM      30.08R
MILWAUKEE      PTCLDY    70  62  76 CALM      30.06R
$$






USA.gov is the U.S. government's official web portal to all federal, state and local government web resources and services.